ISS120 LIMC-LGSK

Flight info

Callsign ISS120
Flight time 3h 0m
Altitude 37000
Route VAKON DCT IBUPU DCT NIKOL DCT SAL DCT SIPAL DCT PETAK DCT DOBAR DCT TALAS UN130 TSL
Aircraft A320/M-SDE3FGHIRWY/LB1

Departure

Time 2026-05-09 08:11
Airport Milan Malpensa International Airport (LIMC)

Arrival

Time 2026-05-09 11:11
Airport Skiathos Island National Airport (LGSK)
Time Latitude Longitude Altitude Speed Heading
2026-05-09 07:50 45.61593 8.72232 710 ft 0 kts 80°
2026-05-09 08:04 45.61594 8.72241 714 ft 4 kts 79°
2026-05-09 08:04 45.61599 8.72292 710 ft 5 kts 95°
2026-05-09 08:04 45.61570 8.72327 711 ft 8 kts 158°
2026-05-09 08:05 45.61503 8.72343 700 ft 10 kts 170°
2026-05-09 08:05 45.61422 8.72369 706 ft 15 kts 168°
2026-05-09 08:05 45.61301 8.72403 696 ft 20 kts 170°
2026-05-09 08:05 45.61178 8.72441 694 ft 18 kts 160°
2026-05-09 08:06 45.61115 8.72512 699 ft 12 kts 130°
2026-05-09 08:06 45.61080 8.72647 698 ft 17 kts 88°
2026-05-09 08:06 45.61105 8.72835 695 ft 21 kts 80°
2026-05-09 08:06 45.61142 8.73040 697 ft 20 kts 52°
2026-05-09 08:07 45.61260 8.73172 699 ft 23 kts 34°
2026-05-09 08:07 45.61374 8.73262 702 ft 16 kts 11°
2026-05-09 08:07 45.61497 8.73245 699 ft 19 kts 348°
2026-05-09 08:07 45.61619 8.73240 706 ft 14 kts 28°
2026-05-09 08:08 45.61644 8.73312 706 ft 9 kts 85°
2026-05-09 08:08 45.61633 8.73425 704 ft 14 kts 111°
2026-05-09 08:08 45.61590 8.73537 700 ft 12 kts 104°
2026-05-09 08:08 45.61586 8.73602 702 ft 4 kts 88°
2026-05-09 08:09 45.61594 8.73674 698 ft 10 kts 73°
2026-05-09 08:09 45.61648 8.73729 702 ft 11 kts 359°
2026-05-09 08:09 45.61676 8.73722 696 ft 0 kts 346°
2026-05-09 08:10 45.61680 8.73720 700 ft 2 kts 346°
2026-05-09 08:10 45.61798 8.73684 702 ft 40 kts 349°
2026-05-09 08:10 45.62308 8.73545 718 ft 107 kts 349°
2026-05-09 08:11 45.63238 8.73298 738 ft 167 kts 350°
2026-05-09 08:11 45.64485 8.72976 1326 ft 188 kts 349°
2026-05-09 08:11 45.65678 8.72729 2302 ft 182 kts
2026-05-09 08:11 45.66756 8.73301 3415 ft 158 kts 41°
2026-05-09 08:12 45.67944 8.76213 4345 ft 204 kts 91°
2026-05-09 08:12 45.68179 8.78334 4601 ft 232 kts 73°
2026-05-09 08:12 45.68307 8.79924 4835 ft 253 kts 96°
2026-05-09 08:13 45.67754 8.82415 5422 ft 272 kts 115°
2026-05-09 08:13 45.66835 8.85719 6893 ft 269 kts 106°
2026-05-09 08:13 45.66460 8.88388 7728 ft 277 kts 98°
2026-05-09 08:13 45.61593 8.72232 710 ft 0 kts 80°
2026-05-09 08:16 45.61594 8.72239 710 ft 3 kts 80°
2026-05-09 08:18 45.61597 8.72260 710 ft 4 kts 79°
2026-05-09 08:18 45.61594 8.72306 710 ft 5 kts 114°
2026-05-09 08:18 45.61555 8.72335 709 ft 8 kts 169°
2026-05-09 08:18 45.61489 8.72352 706 ft 11 kts 169°
2026-05-09 08:19 45.61399 8.72377 699 ft 15 kts 169°
2026-05-09 08:19 45.61284 8.72411 703 ft 18 kts 168°
2026-05-09 08:19 45.61150 8.72457 695 ft 18 kts 157°
2026-05-09 08:19 45.61106 8.72568 699 ft 11 kts 68°
2026-05-09 08:20 45.61123 8.72596 694 ft 1 kts 70°
2026-05-09 08:20 45.61117 8.72654 698 ft 13 kts 99°
2026-05-09 08:20 45.61108 8.72812 698 ft 18 kts 87°
2026-05-09 08:20 45.61131 8.72997 690 ft 19 kts 75°
2026-05-09 08:21 45.61218 8.73123 700 ft 18 kts 36°
2026-05-09 08:21 45.61321 8.73222 702 ft 18 kts 34°
2026-05-09 08:21 45.61441 8.73254 698 ft 18 kts 348°
2026-05-09 08:21 45.61563 8.73220 705 ft 18 kts 356°
2026-05-09 08:22 45.61641 8.73325 703 ft 17 kts 76°
2026-05-09 08:22 45.61611 8.73488 696 ft 18 kts 116°
2026-05-09 08:22 45.61588 8.73590 699 ft 0 kts 92°
2026-05-09 08:26 45.61587 8.73615 702 ft 9 kts 91°
2026-05-09 08:26 45.61637 8.73729 698 ft 19 kts 12°
2026-05-09 08:26 45.61824 8.73687 697 ft 48 kts 349°
2026-05-09 08:27 45.62365 8.73540 720 ft 108 kts 347°
2026-05-09 08:27 45.63301 8.73279 736 ft 165 kts 349°
2026-05-09 08:27 45.64527 8.72890 1196 ft 191 kts 346°
2026-05-09 08:27 45.65804 8.72845 2268 ft 181 kts 19°
2026-05-09 08:28 45.66825 8.73942 2840 ft 199 kts 52°
2026-05-09 08:28 45.67304 8.75910 3210 ft 225 kts 84°
2026-05-09 08:28 45.67796 8.78035 3939 ft 227 kts 51°
2026-05-09 08:28 45.68992 8.79497 4738 ft 232 kts 34°
2026-05-09 08:29 45.70405 8.80868 5130 ft 260 kts 37°
2026-05-09 08:29 45.71489 8.83001 5746 ft 272 kts 75°
2026-05-09 08:29 45.71451 8.85645 6792 ft 268 kts 106°
2026-05-09 08:29 45.70846 8.88219 7526 ft 277 kts 111°
2026-05-09 08:30 45.70195 8.90831 8391 ft 280 kts 108°
2026-05-09 08:30 45.69644 8.93522 9197 ft 285 kts 105°
2026-05-09 08:30 45.69131 8.96285 9972 ft 289 kts 106°
2026-05-09 08:30 45.68577 8.99062 10702 ft 292 kts 107°
2026-05-09 08:31 45.67996 9.01880 11140 ft 308 kts 107°
2026-05-09 08:31 45.67386 9.04918 11375 ft 329 kts 106°
2026-05-09 08:31 45.66738 9.08169 11562 ft 350 kts 106°
2026-05-09 08:31 45.66045 9.11611 11701 ft 371 kts 107°
2026-05-09 08:32 45.65322 9.15180 12346 ft 374 kts 107°
2026-05-09 08:32 45.64596 9.18757 13078 ft 377 kts 107°
2026-05-09 08:32 45.63119 9.26048 14248 ft 386 kts 107°
2026-05-09 08:33 45.62362 9.29761 14829 ft 390 kts 107°
2026-05-09 08:33 45.61598 9.33505 15388 ft 394 kts 107°
2026-05-09 08:33 45.60827 9.37288 15917 ft 398 kts 107°
2026-05-09 08:33 45.60050 9.41096 16431 ft 402 kts 107°
2026-05-09 08:34 45.59260 9.44952 16955 ft 406 kts 107°
2026-05-09 08:34 45.58458 9.48835 17449 ft 410 kts 107°
2026-05-09 08:34 45.57649 9.52762 17939 ft 414 kts 107°
2026-05-09 08:34 45.56845 9.56671 18424 ft 418 kts 108°
2026-05-09 08:35 45.56021 9.60665 18821 ft 422 kts 108°
2026-05-09 08:35 45.55185 9.64698 19180 ft 426 kts 108°
2026-05-09 08:35 45.54339 9.68775 19515 ft 431 kts 108°
2026-05-09 08:35 45.53485 9.72884 19873 ft 435 kts 108°
2026-05-09 08:36 45.52619 9.77038 20224 ft 439 kts 108°
2026-05-09 08:36 45.51744 9.81233 20566 ft 443 kts 108°
2026-05-09 08:36 45.50860 9.85469 20909 ft 447 kts 108°
2026-05-09 08:36 45.49966 9.89731 21241 ft 451 kts 108°
2026-05-09 08:37 45.49060 9.94035 21553 ft 455 kts 108°
2026-05-09 08:37 45.48145 9.98355 21884 ft 458 kts 109°
2026-05-09 08:37 45.46837 10.02502 22207 ft 458 kts 121°
2026-05-09 08:37 45.45235 10.06439 22521 ft 462 kts 123°
2026-05-09 08:38 45.43591 10.10394 22829 ft 465 kts 123°
2026-05-09 08:38 45.41972 10.14405 23140 ft 469 kts 122°
2026-05-09 08:38 45.40360 10.18456 23448 ft 472 kts 122°
2026-05-09 08:38 45.38712 10.22523 23736 ft 475 kts 123°
2026-05-09 08:39 45.37038 10.26596 24002 ft 478 kts 123°
2026-05-09 08:39 45.35369 10.30690 24283 ft 480 kts 122°
2026-05-09 08:39 45.33720 10.34767 24543 ft 482 kts 122°
2026-05-09 08:39 45.32039 10.38898 24789 ft 484 kts 123°
2026-05-09 08:40 45.30342 10.43033 25040 ft 486 kts 123°
2026-05-09 08:40 45.28633 10.47199 25278 ft 488 kts 123°
2026-05-09 08:40 45.26926 10.51377 25519 ft 490 kts 123°
2026-05-09 08:40 45.25208 10.55569 25752 ft 492 kts 123°
2026-05-09 08:41 45.23469 10.59793 25983 ft 495 kts 123°
2026-05-09 08:41 45.21728 10.64018 26211 ft 497 kts 123°
2026-05-09 08:41 45.19981 10.68257 26432 ft 499 kts 123°
2026-05-09 08:41 45.18227 10.72509 26662 ft 501 kts 123°
2026-05-09 08:42 45.16647 10.76939 26863 ft 505 kts 116°
2026-05-09 08:42 45.15259 10.81517 27086 ft 507 kts 115°
2026-05-09 08:42 45.13879 10.86118 27311 ft 509 kts 115°
2026-05-09 08:42 45.12459 10.90714 27520 ft 510 kts 116°
2026-05-09 08:43 45.11018 10.95321 27731 ft 512 kts 116°
2026-05-09 08:43 45.09609 10.99888 27970 ft 513 kts 115°
2026-05-09 08:43 45.08196 11.04511 28287 ft 512 kts 115°
2026-05-09 08:43 45.06770 11.09120 28586 ft 511 kts 116°
2026-05-09 08:44 45.05333 11.13722 28861 ft 511 kts 116°
2026-05-09 08:44 45.03902 11.18313 29141 ft 511 kts 116°
2026-05-09 08:44 45.02474 11.22922 29412 ft 510 kts 116°
2026-05-09 08:44 45.01048 11.27506 29687 ft 510 kts 116°
2026-05-09 08:45 44.99611 11.32092 29957 ft 510 kts 116°
2026-05-09 08:45 44.98170 11.36683 30209 ft 510 kts 116°
2026-05-09 08:45 44.96738 11.41258 30427 ft 510 kts 116°
2026-05-09 08:45 44.95298 11.45850 30602 ft 511 kts 116°
2026-05-09 08:46 44.93851 11.50446 30774 ft 512 kts 116°
2026-05-09 08:46 44.92397 11.55049 30952 ft 513 kts 116°
2026-05-09 08:46 44.90945 11.59651 31126 ft 514 kts 116°
2026-05-09 08:46 44.89489 11.64258 31313 ft 515 kts 116°
2026-05-09 08:47 44.88028 11.68866 31487 ft 516 kts 116°
2026-05-09 08:47 44.86576 11.73436 31659 ft 516 kts 116°
2026-05-09 08:47 44.85104 11.78065 31848 ft 517 kts 116°
2026-05-09 08:47 44.83628 11.82698 32022 ft 518 kts 116°
2026-05-09 08:48 44.82152 11.87321 32186 ft 519 kts 116°
2026-05-09 08:48 44.80667 11.91965 32353 ft 520 kts 116°
2026-05-09 08:48 44.79179 11.96611 32518 ft 520 kts 116°
2026-05-09 08:48 44.77690 12.01251 32702 ft 521 kts 116°
2026-05-09 08:49 44.76195 12.05902 32863 ft 522 kts 116°
2026-05-09 08:49 44.74696 12.10556 33019 ft 523 kts 116°
2026-05-09 08:49 44.73699 12.13648 33136 ft 523 kts 116°
2026-05-09 08:49 44.72177 12.18358 33304 ft 524 kts 116°
2026-05-09 08:50 44.70664 12.23034 33457 ft 525 kts 116°
2026-05-09 08:50 44.69149 12.27709 33609 ft 526 kts 116°
2026-05-09 08:50 44.67628 12.32392 33772 ft 527 kts 116°
2026-05-09 08:50 44.66106 12.37071 33957 ft 527 kts 116°
2026-05-09 08:51 44.64599 12.41695 34106 ft 528 kts 116°
2026-05-09 08:51 44.63069 12.46384 34258 ft 528 kts 116°
2026-05-09 08:51 44.61537 12.51067 34470 ft 527 kts 116°
2026-05-09 08:51 44.60012 12.55720 34693 ft 525 kts 116°
2026-05-09 08:52 44.58486 12.60368 34909 ft 524 kts 116°
2026-05-09 08:52 44.56961 12.65009 35103 ft 522 kts 116°
2026-05-09 08:52 44.55439 12.69632 35310 ft 521 kts 116°
2026-05-09 08:52 44.53920 12.74234 35522 ft 520 kts 116°
2026-05-09 08:53 44.52400 12.78830 35722 ft 518 kts 116°
2026-05-09 08:53 44.50887 12.83401 35925 ft 517 kts 116°
2026-05-09 08:53 44.49369 12.87979 36110 ft 516 kts 116°
2026-05-09 08:53 44.47850 12.92549 36305 ft 515 kts 117°
2026-05-09 08:54 44.46340 12.97089 36482 ft 514 kts 117°
2026-05-09 08:54 44.44846 13.01572 36669 ft 513 kts 117°
2026-05-09 08:54 44.43329 13.06112 36859 ft 512 kts 117°
2026-05-09 08:54 44.41823 13.10612 37049 ft 511 kts 117°
2026-05-09 08:55 44.40312 13.15122 37090 ft 514 kts 117°
2026-05-09 08:55 44.37257 13.24219 37121 ft 519 kts 117°
2026-05-09 08:56 44.34182 13.33340 37114 ft 517 kts 117°
2026-05-09 08:56 44.31112 13.42416 37114 ft 516 kts 117°
2026-05-09 08:57 44.28043 13.51461 37113 ft 515 kts 117°
2026-05-09 08:57 44.24974 13.60474 37112 ft 514 kts 117°
2026-05-09 08:58 44.22037 13.69512 37120 ft 515 kts 107°
2026-05-09 08:58 44.20245 13.79168 37107 ft 515 kts 103°
2026-05-09 08:59 44.18453 13.88818 37105 ft 514 kts 105°
2026-05-09 08:59 44.16643 13.98464 37109 ft 513 kts 104°
2026-05-09 09:00 44.14849 14.08075 37117 ft 512 kts 105°
2026-05-09 09:00 44.13043 14.17590 37113 ft 510 kts 104°
2026-05-09 09:01 44.11243 14.27130 37109 ft 509 kts 105°
2026-05-09 09:01 44.09420 14.36655 37115 ft 509 kts 105°
2026-05-09 09:02 44.07604 14.46167 37122 ft 509 kts 105°
2026-05-09 09:02 44.06080 14.54066 37112 ft 508 kts 105°
2026-05-09 09:03 44.04250 14.63550 37108 ft 507 kts 105°
2026-05-09 09:03 44.02410 14.73010 37109 ft 506 kts 105°
2026-05-09 09:04 44.00571 14.82441 37107 ft 506 kts 105°
2026-05-09 09:04 43.98718 14.91883 37104 ft 506 kts 105°
2026-05-09 09:05 43.96873 15.01247 37091 ft 506 kts 105°
2026-05-09 09:05 43.95013 15.10642 37089 ft 504 kts 105°
2026-05-09 09:06 43.92636 15.19723 37100 ft 499 kts 121°
2026-05-09 09:06 43.89180 15.28071 37073 ft 498 kts 122°
2026-05-09 09:07 43.85781 15.36452 37071 ft 499 kts 121°
2026-05-09 09:07 43.82345 15.44794 37076 ft 499 kts 121°
2026-05-09 09:08 43.78921 15.53140 37073 ft 498 kts 121°
2026-05-09 09:08 43.75479 15.61476 37070 ft 498 kts 122°
2026-05-09 09:09 43.72054 15.69756 37073 ft 499 kts 121°
2026-05-09 09:09 43.68603 15.78076 37074 ft 499 kts 122°
2026-05-09 09:10 43.65144 15.86387 37071 ft 498 kts 122°
2026-05-09 09:10 43.61689 15.94669 37068 ft 498 kts 122°
2026-05-09 09:11 43.58229 16.02934 37061 ft 497 kts 122°
2026-05-09 09:11 43.54774 16.11169 37056 ft 496 kts 122°
2026-05-09 09:12 43.51307 16.19404 37049 ft 496 kts 122°
2026-05-09 09:12 43.47864 16.27562 37046 ft 496 kts 122°
2026-05-09 09:13 43.44390 16.35769 37048 ft 496 kts 122°
2026-05-09 09:13 43.40907 16.43975 37057 ft 496 kts 122°
2026-05-09 09:14 43.37426 16.52153 37094 ft 496 kts 122°
2026-05-09 09:14 43.33935 16.60332 37099 ft 495 kts 122°
2026-05-09 09:15 43.30443 16.68485 37102 ft 494 kts 122°
2026-05-09 09:15 43.26958 16.76607 37106 ft 493 kts 122°
2026-05-09 09:16 43.23467 16.84713 37099 ft 493 kts 122°
2026-05-09 09:16 43.18245 16.96804 37090 ft 493 kts 122°
2026-05-09 09:17 43.14742 17.04884 37088 ft 493 kts 122°
2026-05-09 09:17 43.10721 17.12443 37078 ft 490 kts 132°
2026-05-09 09:18 43.06420 17.19686 37070 ft 490 kts 131°
2026-05-09 09:18 43.02197 17.26930 37077 ft 489 kts 131°
2026-05-09 09:19 42.97912 17.34152 37068 ft 489 kts 131°
2026-05-09 09:19 42.93649 17.41398 37069 ft 489 kts 131°
2026-05-09 09:20 42.89367 17.48602 37076 ft 490 kts 131°
2026-05-09 09:20 42.85081 17.55834 37067 ft 490 kts 131°
2026-05-09 09:21 42.80805 17.63005 37069 ft 490 kts 131°
2026-05-09 09:21 42.76506 17.70215 37063 ft 490 kts 131°
2026-05-09 09:22 42.72198 17.77410 37056 ft 490 kts 131°
2026-05-09 09:22 42.67888 17.84599 37069 ft 490 kts 131°
2026-05-09 09:23 42.63578 17.91768 37060 ft 490 kts 131°
2026-05-09 09:23 42.59259 17.98934 37042 ft 489 kts 131°
2026-05-09 09:24 42.54938 18.06086 37056 ft 489 kts 131°
2026-05-09 09:24 42.50735 18.13260 37057 ft 490 kts 127°
2026-05-09 09:25 42.46922 18.20949 37054 ft 491 kts 127°
2026-05-09 09:25 42.42854 18.28366 37057 ft 491 kts 128°
2026-05-09 09:26 42.38935 18.35924 37056 ft 490 kts 127°
2026-05-09 09:26 42.34920 18.43387 37058 ft 490 kts 128°
2026-05-09 09:27 42.30956 18.50880 37060 ft 490 kts 127°
2026-05-09 09:27 42.26958 18.58343 37061 ft 490 kts 128°
2026-05-09 09:28 42.22971 18.65804 37062 ft 490 kts 128°
2026-05-09 09:28 42.18976 18.73244 37063 ft 489 kts 128°
2026-05-09 09:29 42.15004 18.80627 37068 ft 489 kts 128°
2026-05-09 09:29 42.11006 18.88043 37075 ft 489 kts 128°
2026-05-09 09:30 42.07001 18.95450 37085 ft 489 kts 128°
2026-05-09 09:30 42.02996 19.02842 37082 ft 489 kts 128°
2026-05-09 09:31 41.98970 19.10251 37084 ft 489 kts 128°
2026-05-09 09:32 41.92966 19.21272 37081 ft 489 kts 128°
2026-05-09 09:32 41.88943 19.28632 37082 ft 489 kts 128°
2026-05-09 09:33 41.84914 19.35987 37087 ft 489 kts 128°
2026-05-09 09:33 41.80879 19.43334 37086 ft 488 kts 128°
2026-05-09 09:34 41.76846 19.50659 37084 ft 488 kts 128°
2026-05-09 09:34 41.72797 19.57997 37085 ft 490 kts 128°
2026-05-09 09:36 41.56587 19.87196 37083 ft 491 kts 128°
2026-05-09 09:37 41.52500 19.94507 37084 ft 491 kts 128°
2026-05-09 09:37 41.48418 20.01803 37084 ft 491 kts 128°
2026-05-09 09:38 41.44326 20.09093 37082 ft 491 kts 128°
2026-05-09 09:38 41.40228 20.16378 37089 ft 491 kts 128°
2026-05-09 09:39 41.36122 20.23662 37074 ft 491 kts 128°
2026-05-09 09:39 41.32014 20.30928 37080 ft 491 kts 128°
2026-05-09 09:40 41.27923 20.38150 37087 ft 491 kts 128°
2026-05-09 09:40 41.23810 20.45392 37095 ft 491 kts 128°
2026-05-09 09:41 41.19691 20.52628 37101 ft 490 kts 128°
2026-05-09 09:41 41.15561 20.59866 37106 ft 491 kts 128°
2026-05-09 09:42 41.11433 20.67083 37112 ft 491 kts 129°
2026-05-09 09:42 41.07296 20.74300 37104 ft 492 kts 129°
2026-05-09 09:43 41.03150 20.81516 37101 ft 492 kts 129°
2026-05-09 09:43 40.98997 20.88724 37086 ft 492 kts 128°
2026-05-09 09:44 40.94846 20.95917 37075 ft 492 kts 129°
2026-05-09 09:44 40.90683 21.03109 37060 ft 492 kts 129°
2026-05-09 09:45 40.86521 21.10287 37064 ft 492 kts 129°
2026-05-09 09:45 40.82357 21.17449 37066 ft 492 kts 129°
2026-05-09 09:46 40.78211 21.24563 37062 ft 492 kts 129°
2026-05-09 09:46 40.74037 21.31711 37060 ft 492 kts 129°
2026-05-09 09:47 40.69852 21.38858 37057 ft 492 kts 129°
2026-05-09 09:47 40.65663 21.45998 37061 ft 492 kts 129°
2026-05-09 09:48 40.61470 21.53126 37061 ft 493 kts 129°
2026-05-09 09:48 40.57271 21.60254 37059 ft 492 kts 129°
2026-05-09 09:49 40.53063 21.67370 37069 ft 493 kts 129°
2026-05-09 09:49 40.48857 21.74477 37072 ft 493 kts 129°
2026-05-09 09:49 40.46781 21.77976 36962 ft 487 kts 129°
2026-05-09 09:50 40.44700 21.81480 36044 ft 489 kts 129°
2026-05-09 09:50 40.42589 21.85027 35112 ft 493 kts 129°
2026-05-09 09:50 40.40477 21.88577 34366 ft 492 kts 129°
2026-05-09 09:50 40.38370 21.92117 33486 ft 491 kts 129°
2026-05-09 09:51 40.36976 21.94454 32829 ft 492 kts 129°
2026-05-09 09:51 40.34861 21.97994 31804 ft 493 kts 129°
2026-05-09 09:51 40.32741 22.01539 30774 ft 494 kts 129°
2026-05-09 09:51 40.30619 22.05087 29653 ft 495 kts 129°
2026-05-09 09:52 40.28485 22.08650 28369 ft 497 kts 130°
2026-05-09 09:52 40.26553 22.11871 27364 ft 497 kts 130°
2026-05-09 09:52 40.26551 22.11875 27363 ft 497 kts 130°
2026-05-09 10:51 40.26467 22.12014 27292 ft 497 kts 131°
2026-05-09 10:51 40.24357 22.15551 26744 ft 440 kts 131°
2026-05-09 10:51 40.22568 22.18550 25319 ft 400 kts 132°
2026-05-09 10:52 40.20867 22.21350 23598 ft 402 kts 133°
2026-05-09 10:52 40.19050 22.24314 22305 ft 421 kts 132°
2026-05-09 10:52 40.17282 22.27276 21997 ft 406 kts 132°
2026-05-09 10:52 40.15552 22.30177 21237 ft 405 kts 132°
2026-05-09 10:53 40.13810 22.33043 20619 ft 400 kts 133°
2026-05-09 10:53 40.12092 22.35869 20045 ft 394 kts 133°
2026-05-09 10:53 40.10394 22.38677 19435 ft 392 kts 132°
2026-05-09 10:53 40.08719 22.41459 18853 ft 388 kts 132°
2026-05-09 10:54 40.07051 22.44211 18258 ft 385 kts 133°
2026-05-09 10:54 40.05394 22.46935 17646 ft 380 kts 133°
2026-05-09 10:54 40.03762 22.49622 16962 ft 378 kts 133°
2026-05-09 10:54 40.02138 22.52299 16337 ft 373 kts 132°
2026-05-09 10:55 40.00534 22.54938 15677 ft 370 kts 132°
2026-05-09 10:55 39.98935 22.57562 15073 ft 367 kts 132°
2026-05-09 10:55 39.97358 22.60152 14489 ft 363 kts 132°
2026-05-09 10:55 39.95795 22.62718 13907 ft 360 kts 133°
2026-05-09 10:56 39.94243 22.65260 13239 ft 357 kts 133°
2026-05-09 10:56 39.92703 22.67783 12661 ft 353 kts 133°
2026-05-09 10:56 39.91183 22.70271 12069 ft 349 kts 133°
2026-05-09 10:56 39.89673 22.72738 11476 ft 347 kts 133°
2026-05-09 10:57 39.88178 22.75180 10924 ft 343 kts 134°
2026-05-09 10:57 39.86700 22.77594 10405 ft 339 kts 134°
2026-05-09 10:57 39.85271 22.79934 10320 ft 320 kts 134°
2026-05-09 10:57 39.83944 22.82105 10244 ft 303 kts 135°
2026-05-09 10:58 39.82628 22.84237 9729 ft 304 kts 135°
2026-05-09 10:58 39.81308 22.86372 9293 ft 301 kts 134°
2026-05-09 10:58 39.80013 22.88486 8866 ft 297 kts 134°
2026-05-09 10:58 39.78726 22.90581 8425 ft 294 kts 134°
2026-05-09 10:59 39.77451 22.92650 8000 ft 291 kts 134°
2026-05-09 10:59 39.76190 22.94696 7588 ft 288 kts 133°
2026-05-09 10:59 39.74942 22.96722 7186 ft 285 kts 133°
2026-05-09 10:59 39.73711 22.98718 6793 ft 282 kts 133°
2026-05-09 11:00 39.72487 23.00702 6374 ft 280 kts 132°
2026-05-09 11:00 39.71276 23.02662 5982 ft 276 kts 132°
2026-05-09 11:00 39.70079 23.04600 5567 ft 273 kts 131°
2026-05-09 11:00 39.68896 23.06513 5163 ft 270 kts 131°
2026-05-09 11:01 39.67738 23.08384 4773 ft 267 kts 131°
2026-05-09 11:01 39.66582 23.10252 4359 ft 264 kts 130°
2026-05-09 11:01 39.65435 23.12106 3991 ft 260 kts 130°
2026-05-09 11:01 39.64322 23.13899 4000 ft 259 kts 130°
2026-05-09 11:02 39.63188 23.15727 3999 ft 255 kts 130°
2026-05-09 11:02 39.62054 23.17559 4003 ft 262 kts 130°
2026-05-09 11:02 39.60916 23.19390 3999 ft 263 kts 130°
2026-05-09 11:02 39.59773 23.21227 4007 ft 259 kts 130°
2026-05-09 11:03 39.58652 23.23035 4002 ft 260 kts 130°
2026-05-09 11:03 39.57516 23.24862 4000 ft 262 kts 130°
2026-05-09 11:03 39.56377 23.26688 4002 ft 260 kts 130°
2026-05-09 11:03 39.55238 23.28519 4002 ft 260 kts 130°
2026-05-09 11:04 39.54210 23.30452 4006 ft 263 kts 120°
2026-05-09 11:04 39.53406 23.32569 4004 ft 262 kts 117°
2026-05-09 11:04 39.52456 23.34573 4013 ft 261 kts 139°
2026-05-09 11:04 39.50863 23.35571 4020 ft 258 kts 174°
2026-05-09 11:05 39.49129 23.35153 4015 ft 257 kts 203°
2026-05-09 11:05 39.47397 23.34694 4011 ft 256 kts 173°
2026-05-09 11:05 39.45797 23.35651 4006 ft 260 kts 137°
2026-05-09 11:05 39.44747 23.37520 3997 ft 249 kts 133°
2026-05-09 11:06 39.43392 23.38722 4001 ft 230 kts 157°
2026-05-09 11:06 39.41992 23.39567 3931 ft 220 kts 152°
2026-05-09 11:06 39.40711 23.40662 3561 ft 223 kts 144°
2026-05-09 11:06 39.39486 23.41886 3281 ft 221 kts 144°
2026-05-09 11:07 39.38239 23.43041 2966 ft 220 kts 146°
2026-05-09 11:07 39.36983 23.44174 2640 ft 220 kts 146°
2026-05-09 11:07 39.35749 23.45312 2478 ft 212 kts 145°
2026-05-09 11:07 39.34583 23.46385 2493 ft 206 kts 146°
2026-05-09 11:08 39.33425 23.47443 2495 ft 200 kts 146°
2026-05-09 11:08 39.32284 23.48488 2495 ft 201 kts 146°
2026-05-09 11:08 39.31153 23.49525 2489 ft 200 kts 146°
2026-05-09 11:08 39.30025 23.50560 2491 ft 198 kts 146°
2026-05-09 11:09 39.28891 23.51600 2491 ft 199 kts 146°
2026-05-09 11:09 39.27769 23.52629 2474 ft 194 kts 146°
2026-05-09 11:09 39.26609 23.53504 2046 ft 196 kts 164°
2026-05-09 11:09 39.25325 23.53426 1904 ft 176 kts 196°
2026-05-09 11:10 39.24212 23.52968 1564 ft 171 kts 195°
2026-05-09 11:10 39.23038 23.52609 1024 ft 171 kts 191°
2026-05-09 11:10 39.21891 23.52327 609 ft 164 kts 191°
2026-05-09 11:10 39.20842 23.51939 325 ft 147 kts 200°
2026-05-09 11:11 39.19981 23.51430 204 ft 129 kts 204°
2026-05-09 11:11 39.19173 23.51025 143 ft 122 kts 199°
2026-05-09 11:11 39.18385 23.50670 63 ft 118 kts 199°
2026-05-09 11:11 39.17813 23.50412 40 ft 39 kts 199°
2026-05-09 11:12 39.17750 23.50376 41 ft 7 kts 218°
2026-05-09 11:12 39.17718 23.50322 40 ft 7 kts 238°
2026-05-09 11:12 39.17696 23.50279 39 ft 5 kts 232°
2026-05-09 11:12 39.17691 23.50243 38 ft 2 kts 283°
2026-05-09 11:13 39.17705 23.50228 37 ft 3 kts 336°
2026-05-09 11:13 39.17716 23.50226 38 ft 1 kts
2026-05-09 11:13 39.17737 23.50247 38 ft 8 kts 36°
2026-05-09 11:13 39.17771 23.50256 41 ft 6 kts 341°
2026-05-09 11:14 39.17791 23.50207 44 ft 9 kts 293°
2026-05-09 11:14 39.17795 23.50194 44 ft 0 kts 294°